Location: Mahannah Oil Field
(37.4664°N, 96.6003°W)
Time: 02:11:31
(UTC+00:00)

Tiros 1 despin weight - Pass Details

Date: 31 January 2021
Orbit: 593 x 642 km, 48.2° (Epoch: 25 February)

Event Time Altitude Azimuth Distance (km) Brightness Sun altitude
Rises 01:01:42 0° 297° (WNW) 2,856 ? -14.7°
Reaches altitude 10° 01:04:09 10° 288° (WNW) 1,942 ? -15.2°
Maximum altitude 01:08:10 34° 224° (SW) 992 ? -16.0°
Drops below altitude 10° 01:12:08 10° 159° (SSE) 1,916 ? -16.7°
Enters shadow 01:14:19 - 150° (SSE) 2,723 ? -17.2°
Sets 01:14:33 0° 150° (SSE) 2,811 - -17.2°
